Location: Chagrin Falls Park
(41.4139°N, 81.3865°W)
Time: 23:35:56
(UTC+00:00)

SAR-Lupe-4 - Pass Details

Date: 29 October 2020
Orbit: 481 x 484 km, 98.2° (Epoch: 22 November)

Event Time Altitude Azimuth Distance (km) Brightness Sun altitude
Rises 23:22:29 0° 12° (NNE) 2,552 7.0 -11.6°
Reaches altitude 10° 23:24:33 10° 12° (NNE) 1,667 6.1 -12.0°
Maximum altitude 23:28:08 87° 289° (WNW) 488 3.5 -12.6°
Drops below altitude 10° 23:31:42 10° 195° (SSW) 1,654 6.5 -13.3°
Sets 23:33:44 0° 195° (SSW) 2,529 7.5 -13.7°
